#timestamp,LO_Frequency,Hit,StdDev 
1553749215.1,286046998.2,N
1553749216.0,286046998.2,N
1553749235.8,286046998.6,N
1553749255.6,286046998.3,N
1553749275.5,286047001.1,N
1553749295.3,286046998.3,N
1553749315.1,286046998.6,N
1553749335.9,286047001.2,N
1553749355.7,286047000.4,N
1553749375.6,286046999.5,N
1553749395.4,286046997.1,N
1553749415.2,286046999.6,N
1553749435.1,286046998.6,N
1553749436.0,286046998.6,N
1553749455.8,286047001.1,N
1553749475.6,286046999.0,N
1553749495.5,286046996.5,Y
1553749515.3,286047000.4,P
1553749535.2,286047001.3,N
1553749555.9,286047003.9,P
1553749575.9,286047003.7,N
1553749595.7,286047003.4,N
1553749615.5,286047004.3,N
1553749635.4,286047002.0,N
1553749655.2,286047003.9,N
1553749675.0,286047001.7,N
1553749675.9,286047001.7,N
1553749695.8,286047001.7,N
1553749715.6,286046999.8,N
1553749735.5,286047002.6,N
1553749755.3,286047000.1,N
1553749775.1,286047000.7,N
1553749795.9,286047000.2,N
1553749815.7,286046999.7,N
1553749835.5,286047002.6,N
1553749855.4,286047001.9,N
1553749875.2,286047001.0,N
1553749895.1,286047001.1,N
1553749896.0,286047001.1,N
1553749915.8,286047000.5,N
1553749935.6,286047001.9,N
1553749955.5,286047000.2,N
1553749975.3,286047002.0,N
1553749995.1,286047004.3,Y
1553750015.9,286047002.7,P
1553750035.7,286047002.5,P
1553750055.6,286047004.3,P
1553750075.4,286047004.4,Y
1553750095.2,286047000.7,P
1553750115.1,286047000.4,N
1553750116.0,286047000.4,N
1553750135.8,286047001.0,N
1553750155.7,286047002.8,Y
1553750175.5,286047000.6,P
1553750195.3,286046999.7,N
1553750215.2,286046999.7,N
1553750235.9,286047002.8,Y
1553750255.7,286047002.5,P
1553750275.6,286047002.3,N
1553750295.4,286047000.3,N
1553750315.3,286047000.8,N
1553750335.1,286047000.8,N
1553750336.0,286047000.8,N
1553750355.8,286047001.0,N
1553750375.7,286046998.6,N
1553750395.5,286047001.2,N
1553750415.3,286047001.1,N
1553750435.2,286047000.3,N
1553750455.0,286046999.9,N
1553750455.9,286046999.9,N
1553750475.8,286046999.7,N
1553750495.6,286047000.3,N
1553750515.4,286047001.6,N
1553750535.3,286047002.0,N
1553750555.1,286047002.6,N
1553750575.8,286047002.8,N
1553750595.7,286047000.8,N
1553750615.5,286047000.0,N
1553750635.4,286046998.2,N
1553750655.2,286046999.8,N
1553750675.0,286047000.1,N
1553750675.9,286047000.1,N
1553750695.8,286047002.4,N
1553750715.6,286047002.4,N
1553750735.4,286047000.7,N
1553750755.3,286047001.1,N
1553750775.1,286046998.1,N
1553750795.9,286047000.0,N
1553750815.7,286046997.3,N
1553750835.5,286046999.5,N
1553750855.4,286046999.4,N
1553750875.2,286046999.1,N
1553750895.0,286046998.3,N
1553750895.9,286046998.3,N
1553750915.8,286047001.2,N
1553750935.6,286047001.1,N
1553750955.5,286046998.6,N
1553750975.3,286047001.0,N
1553750995.1,286046999.6,N
1553751015.9,286046997.3,N
1553751035.7,286046996.6,N
1553751055.5,286046999.6,N
1553751075.4,286046998.9,N
1553751095.2,286046998.4,N
1553751115.1,286046998.5,N
1553751116.0,286046998.5,N
1553751135.8,286047000.9,N
1553751155.6,286047000.9,N
1553751175.5,286047000.7,N
1553751195.3,286046998.2,N
1553751215.1,286047000.6,N
1553751235.9,286047001.2,N
1553751255.7,286047000.0,N
1553751275.6,286047000.3,N
1553751295.4,286046999.9,N
1553751315.2,286047002.1,N
1553751335.1,286047003.9,N
1553751336.0,286047003.9,N
1553751355.8,286047003.3,N
1553751375.7,286047003.2,N
1553751395.5,286047003.9,N
1553751415.3,286047004.0,N
1553751435.2,286047001.8,N
1553751455.9,286047002.6,N
1553751475.7,286046999.7,N
1553751495.6,286047000.2,N
1553751515.4,286047002.0,N
1553751535.2,286047002.2,N
1553751555.1,286047001.9,N
1553751556.0,286047001.9,N
1553751575.8,286047001.9,N
1553751595.7,286047003.7,N
1553751615.5,286047000.2,N
1553751635.3,286047001.0,N
1553751655.2,286047000.9,N
1553751675.0,286047002.8,N
1553751675.9,286047002.8,N
1553751695.7,286047000.0,N
1553751715.6,286047001.1,N
1553751735.4,286047000.9,N
1553751755.3,286047000.2,N
1553751775.1,286046999.8,N
1553751795.8,286047000.3,N
1553751815.7,286047000.4,N
1553751835.5,286047000.7,N
1553751855.4,286047001.2,N
1553751875.2,286047000.0,N
1553751895.0,286047002.4,N
1553751895.9,286047002.4,N
1553751915.8,286047001.6,N
1553751935.6,286047001.3,N
1553751955.4,286047002.8,N
1553751975.3,286047002.4,N
1553751995.1,286047000.4,N
1553752015.9,286047000.4,N
1553752035.7,286047000.1,N
1553752055.5,286047002.2,N
1553752075.4,286047001.5,N
1553752095.2,286047003.6,Y
1553752115.0,286047002.6,P
1553752115.9,286047002.6,P
1553752135.8,286047001.1,N
1553752155.6,286046996.5,Y
1553752175.5,286046997.6,P
1553752195.3,286046997.0,N
1553752215.1,286046997.5,N
1553752235.9,286046996.7,N
1553752255.7,286046996.8,N
1553752275.5,286046997.1,N
1553752295.4,286046996.7,N
1553752315.2,286046997.6,N
1553752335.1,286046995.2,Y
1553752336.0,286046995.2,P
1553752355.8,286046999.3,N
1553752375.6,286047002.2,N
1553752395.5,286047001.2,N
1553752415.3,286046999.5,N
1553752435.1,286046999.0,N
1553752455.9,286046998.6,N
1553752475.7,286046998.5,N
1553752495.6,286046999.8,N
1553752515.4,286047002.4,N
1553752535.2,286047000.1,N
1553752555.1,286047002.1,N
1553752556.0,286047002.1,N
1553752575.8,286047002.7,N
1553752595.6,286047002.0,N
1553752615.5,286047000.2,N
1553752635.3,286047000.6,N
1553752655.2,286046999.0,N
1553752675.9,286046996.5,N
1553752695.7,286046996.5,N
1553752715.6,286046999.4,N
1553752735.9,286046998.4,N
1553752755.7,286047001.0,N
1553752775.6,286046999.0,N
1553752795.4,286046999.4,N
